Flag for U.S.A. Weather past 2 weeks in Charleston, West Virginia, U.S.A.

Now
24 °F

Clear.


Feels Like: 24 °F
Forecast: 16 / 51 °F
Wind: No wind

Location: Yeager Airport

Current Time: Mar 6, 2015 at 7:18:09 PM

Latest Report: Mar 6, 2015 at 6:54 PM


Visibility: 10 mi

Pressure: 30.45 "Hg

Humidity: 75%

Dew point: 17 °F

Location of CharlestonLocation

Historic Weather in Charleston — Graph

°F

Charleston temperature yesterday

Maximum temperature yesterday: 32 °F (at 12:54 AM)
Minimum temperature yesterday: 18 °F (at 10:54 PM)
Average temperature yesterday: 23 °F

Past Weeks' High & Low Weather Summary

 TemperatureHumidityPressure
High63 °F (Mar 3, 4:54 PM)100% (Feb 21, 10:54 PM)30.74 "Hg (Feb 21, 10:54 PM)
Low-9 °F (Feb 20, 7:54 AM)30% (Feb 20, 3:54 PM)29.80 "Hg (Feb 26, 3:54 AM)
Average28 °F71%30.25 "Hg
* Reported Feb 19 5:54 PM — Mar 6 5:54 PM, Charleston, Weather by CustomWeather, © 2015

Note: Actual official high and low records may vary slightly from our data, if they occured in-between our weather recording intervals... More about our weather records

Advertising

Charleston weather history for previous 24 hours

 ConditionsComfort  
Time TempWeatherWind HumidityBarometerVisibility
5:54 PM
Fri, Mar 6
27 °FSunny.No wind63%30.45 "Hg10 mi
4:54 PM28 °FScattered clouds.5 mph58%30.45 "Hg10 mi
3:54 PM28 °FScattered clouds.3 mph56%30.47 "Hg10 mi
2:54 PM26 °FScattered clouds.6 mph60%30.49 "Hg10 mi
1:54 PM25 °FScattered clouds.3 mph58%30.50 "Hg10 mi
12:54 PM22 °FScattered clouds.3 mph57%30.55 "Hg10 mi
11:54 AM23 °FScattered clouds.5 mph60%30.56 "Hg10 mi
10:54 AM20 °FScattered clouds.No wind71%30.58 "Hg10 mi
9:54 AM16 °FScattered clouds.No wind87%30.58 "Hg10 mi
8:54 AM10 °FSunny.No wind100%30.59 "Hg10 mi
7:54 AM6 °FSunny.No wind95%30.59 "Hg10 mi
6:54 AM5 °FPassing clouds.No wind83%30.58 "Hg10 mi
5:54 AM6 °FClear.No wind83%30.58 "Hg8 mi
4:54 AM9 °FClear.No wind88%30.56 "Hg8 mi
3:54 AM10 °FClear.3 mph88%30.53 "Hg10 mi
2:54 AM12 °FPassing clouds.No wind80%30.55 "Hg10 mi
1:54 AM13 °FPassing clouds.3 mph84%30.55 "Hg9 mi
12:54 AM15 °FMostly cloudy.No wind77%30.54 "Hg10 mi
12:00 AM17 °FLight snow. Ice fog.No wind88%30.49 "Hg6 mi
10:54 PM
Thu, Mar 5
18 °FLight snow. Mostly cloudy.No wind80%30.55 "Hg9 mi
9:54 PM19 °FLight snow. Mostly cloudy.3 mph81%30.54 "Hg4 mi
8:54 PM19 °FLight snow. Ice fog.3 mph85%30.52 "Hg4 mi
7:54 PM20 °FLight snow. Ice fog.6 mph85%30.50 "Hg4 mi
Weather by CustomWeather, © 2015

See weather overviewHow to use our weather pages